Regional Weather Roundup
Issued by NWS

Home | Current Version | Previous Version | Graphics & Text | Print | Product List | Glossary On
Versions: 1 2 3 4 5 6 7 8 9 10 11 12 13 14 15 16 17 18 19 20 21 22 23 24 25 26 27 28 29 30 31 32 33 34 35 36 37 38 39 40 41 42 43 44 45 46 47 48 49 50
000
ASUS43 KDTX 290701
RWRMI
MICHIGAN HOURLY REGIONAL WEATHER ROUNDUP
NATIONAL WEATHER SERVICE DETROIT/PONTIAC MI
300 AM EDT FRI APR 29 2016

NOTE: "FAIR" INDICATES FEW OR NO CLOUDS BELOW 12,000 FEET WITH NO
SIGNIFICANT WEATHER AND/OR OBSTRUCTION TO VISIBILITY.

MIZ047>049-052>055-059>063-066>070-074>076-081>083-290800-
SOUTHEAST LOWER MICHIGAN

CITY           SKY/WX    TMP DP  RH WIND       PRES   REMARKS
ADRIAN         CLOUDY    46  37  71 NE6       30.00S
ALMA           CLOUDY    40  34  78 N5        30.04F
ANN ARBOR      CLOUDY    45  30  55 NE5       30.00S
BAD AXE        CLOUDY    40  36  86 CALM      30.05S
CARO           CLOUDY    40  34  80 N3        30.03F
DETROIT CITY   CLOUDY    45  27  49 NE3       30.02F
DETROIT        CLOUDY    46  31  55 N7        30.01F
FLINT          CLOUDY    45  31  58 E7        30.03F
GROSSE ILE     CLOUDY    45  34  65 NE7       29.99F
HILLSDALE      CLOUDY    45  35  69 CALM      29.99S
HOWELL         CLOUDY    43  31  62 NE3       30.01S

CITY           SKY/WX    TMP DP  RH WIND       PRES   REMARKS
JACKSON        CLOUDY    45  33  63 NE6       30.00S
LAMBERTVILLE   CLOUDY    47  37  66 NE3       29.99F
LANSING        CLOUDY    41  34  76 NE6       30.03S
LAPEER         CLOUDY    41  33  73 CALM      30.02F
MASON          CLOUDY    43  32  66 NE7       30.01S
MONROE         CLOUDY    46  38  74 NE6       29.99S
MT. CLEMENS    CLOUDY    43  33  66 N6        30.00F
PONTIAC        CLOUDY    44  28  53 NE5       30.00F
PORT HOPE        N/A     41  35  79 SE6       30.04F
PORT HURON     CLOUDY    43  34  70 N5        30.02S
TRI CITIES     CLOUDY    43  35  73 N7        30.05F
MIDLAND        CLOUDY    39  31  73 N3        30.04F
TROY           CLOUDY    45  28  50 NE6       30.03S
SAGINAW HB     CLOUDY    41  32  70 NE6       30.03F
$$
MIZ043>046-050>051-056>058-064>065-071>073-077>080-290800-
SOUTHWEST LOWER MICHIGAN

CITY           SKY/WX    TMP DP  RH WIND       PRES   REMARKS
BATTLE CREEK   CLOUDY    44  37  76 N6        30.02R
BENTON HARBOR  CLOUDY    47  39  74 E6        30.00S
BIG RAPIDS     CLOUDY    40  27  59 E3        30.04S
COLDWATER      CLOUDY    46  37  73 N5        30.01R
FREMONT        LGT RAIN  39  34  81 E7        30.04S WCI  34
HOLLAND        CLOUDY    42  37  82 E5        30.03S
GRAND RAPIDS   CLOUDY    42  35  76 NE6       30.03S
IONIA          CLOUDY    40  34  80 N3        30.03S
KALAMAZOO      CLOUDY    46  38  73 NE6       30.01F
LUDINGTON      CLOUDY    42  32  69 E3        30.05F
MARSHALL       CLOUDY    45  36  71 CALM      30.01R
MOUNT PLEASANT   N/A     38  32  77 CALM      30.04S
MUSKEGON       CLOUDY    42  32  67 E8        30.04R
$$
MIZ016>042-290800-
NORTHERN LOWER MICHIGAN

CITY           SKY/WX    TMP DP  RH WIND       PRES   REMARKS
ALPENA         CLOUDY    34  28  79 N5        30.09F WCI  30
BEAVER ISLAND  CLOUDY    38  28  65 CALM      30.10R
BELLAIRE       CLOUDY    45  13  27 CALM      30.08S
CADILLAC       CLOUDY    38  33  81 CALM      30.03F
CHARLEVOIX     CLOUDY    41  22  46 NE6       30.12R
FRANKFORT      CLOUDY    42  32  66 NE6       30.07S
GAYLORD        CLOUDY    40  20  44 NE6       30.06S
GRAYLING       CLOUDY    40  21  47 CALM      30.07S
HARBOR SPRINGS CLOUDY    38  25  59 E3        30.09S
HOUGHTON LAKE  CLOUDY    39  23  52 NE5       30.05F
MANISTEE       CLOUDY    43  28  56 CALM      30.06F
OSCODA         CLOUDY    42  31  65 NE6       30.06S
PELLSTON       CLOUDY    28  24  85 CALM      30.10F
ROGERS CITY    PTCLDY    28  26  91 CALM      30.10F
TRAVERSE CITY  CLOUDY    43  38  82 CALM      30.07R
$$
MIZ007>008-015-290800-
EASTERN UPPER MICHIGAN

CITY           SKY/WX    TMP DP  RH WIND       PRES   REMARKS
KINROSS          N/A     36  30  80 N8        30.10F WCI  29
MACKINAC ISLAN PTCLDY    36  27  68 NE6       30.09S WCI  31
NEWBERRY       PTCLDY    34  32  91 CALM      30.09F
S. S. MARIE    CLOUDY    37  28  70 NE6       30.11S WCI  32
MUNISING         N/A     33  30  88 S5        30.11S WCI  29
$$
MIZ004>006-011>014-085-290800-
CENTRAL UPPER MICHIGAN

CITY           SKY/WX    TMP DP  RH WIND       PRES   REMARKS
MANISTIQUE     CLOUDY    36  29  76 N3        30.09F
ESCANABA       CLOUDY    41  28  60 N5        30.10S
MENOMINEE      CLOUDY    43  27  52 NE8       30.08F
SAWYER-GWINN   CLOUDY    34  28  77 N3        30.11F
$$
MIZ001>003-009>011-084-290800-
WESTERN UPPER MICHIGAN

CITY           SKY/WX    TMP DP  RH WIND       PRES   REMARKS
IRON MOUNTAIN  CLOUDY    39  25  57 NW6       30.09S WCI  35
HOUGHTON       CLOUDY    31  26  82 CALM      30.11F
COPPER HARBOR    N/A     32  28  85 W5        30.12S WCI  27
IRONWOOD       MOCLDY    32  28  86 CALM      30.08S
$$

ABBREVIATIONS USED IN REMARKS
   TC - TEMPERATURE IN CELSIUS
  WCI - WIND CHILL INDEX
   HX - HEAT INDEX
  VSB - VISIBILITY





USA.gov is the U.S. government's official web portal to all federal, state and local government web resources and services.